K5TCS Weather Reports


time (UTC)temp
C
wind
direction
speed
KPH
gust
KPH
rain 1hr
cm
rain 24hr
cm
rain mn
cm
humidity
%
barometer
mb
20260506114017 7 0.0 4.8 0.00 0.00 0.00 56 1017.7
20260506113017 7 293 1.6 6.4 0.00 0.00 0.00 56 1017.8
20260506112017 7 0.0 11.3 0.00 0.00 0.00 56 1017.7
20260506111017 8 0.0 4.8 0.00 0.00 0.00 55 1018.2
20260506110017 8 0.0 9.7 0.00 0.00 0.00 54 1018.3
20260506105037 8 0.0 8.0 0.00 0.00 0.00 54 1018.3
20260506104017 8 0.0 4.8 0.00 0.00 0.00 55 1017.6
20260506103017 8 0.0 6.4 0.00 0.00 0.00 54 1017.8
20260506102037 8 203 1.6 8.0 0.00 0.00 0.00 54 1017.7
20260506101037 8 203 1.6 9.7 0.00 0.00 0.00 53 1017.6
20260506100037 8 248 3.2 11.3 0.00 0.00 0.00 52 1017.5
20260506095016 8 270 3.2 11.3 0.00 0.00 0.00 52 1017.3
20260506094016 8 248 4.8 16.1 0.00 0.00 0.00 52 1016.7
20260506093037 8 248 4.8 16.1 0.00 0.00 0.00 53 1016.7
20260506092017 8 270 4.8 14.5 0.00 0.00 0.00 53 1016.6
20260506091016 8 270 3.2 11.3 0.00 0.00 0.00 53 1015.0
20260506090016 8 225 3.2 9.7 0.00 0.00 0.00 52 1015.0
20260506085037 8 248 1.6 11.3 0.00 0.00 0.00 52 1014.8
20260506084016 8 0.0 9.7 0.00 0.00 0.00 50 1016.6
20260506083016 8 0.0 4.8 0.00 0.00 0.00 48 1016.7
20260506082016 9 225 1.6 6.4 0.00 0.00 0.00 48 1017.1
20260506081036 9 203 1.6 8.0 0.00 0.00 0.00 47 1016.6
20260506073016 9 225 3.2 9.7 0.00 0.00 0.00 47 1016.8
20260506072016 10 203 4.8 16.1 0.00 0.00 0.00 47 1017.2
20260506071016 10 203 4.8 9.7 0.00 0.00 0.00 45 1017.6
20260506062016 11 203 4.8 16.1 0.00 0.00 0.00 44 1017.7
20260506061016 11 203 6.4 11.3 0.00 0.00 0.00 44 1017.7
20260506051015 11 203 6.4 16.1 0.00 0.00 0.00 45 1017.5
20260506045038 11 225 4.8 9.7 0.00 0.00 0.00 47 1017.5
20260506044017 11 203 6.4 16.1 0.00 0.00 0.00 47 1016.9
20260506043017 12 203 6.4 17.7 0.00 0.00 0.00 47 1016.9
20260506042037 12 203 6.4 14.5 0.00 0.00 0.00 47 1016.9
20260506041018 12 203 4.8 16.1 0.00 0.00 0.00 48 1016.7
20260506040017 12 203 4.8 11.3 0.00 0.00 0.00 48 1016.7
20260506035017 12 203 4.8 16.1 0.00 0.00 0.00 47 1016.4
20260506034017 12 203 6.4 16.1 0.00 0.00 0.00 47 1016.4
20260506033017 12 203 6.4 17.7 0.00 0.00 0.00 46 1016.2
20260506032017 12 203 6.4 16.1 0.00 0.00 0.00 46 1016.1
20260506031018 12 203 8.0 19.3 0.00 0.00 0.00 46 1015.4
20260506030037 12 225 8.0 22.5 0.00 0.00 0.00 47 1015.1
20260506025017 12 248 9.7 24.1 0.00 0.00 0.00 46 1015.0
20260506024017 12 225 11.3 25.7 0.00 0.00 0.00 46 1014.9
20260506023017 12 203 9.7 19.3 0.00 0.00 0.00 46 1014.9
20260506022017 12 225 9.7 20.9 0.00 0.00 0.00 46 1014.7
20260506021017 12 203 9.7 27.4 0.00 0.00 0.00 47 1014.6
20260506020017 12 203 11.3 27.4 0.00 0.00 0.00 47 1014.3
20260506015017 12 203 9.7 24.1 0.00 0.00 0.00 48 1014.3
20260506014017 13 203 9.7 20.9 0.00 0.00 0.00 48 1014.5
20260506013017 13 203 11.3 24.1 0.00 0.00 0.00 48 1014.2
20260506012017 13 203 8.0 19.3 0.00 0.00 0.00 48 1014.3
20260506011037 13 203 11.3 24.1 0.00 0.00 0.00 48 1014.1
20260506010017 13 203 16.1 35.4 0.00 0.00 0.00 47 1014.0
20260506005037 13 203 11.3 29.0 0.00 0.00 0.00 47 1013.9
20260506004037 13 225 14.5 32.2 0.00 0.00 0.00 47 1014.3
20260506003017 13 225 14.5 35.4 0.00 0.00 0.00 47 1014.1
20260506002017 13 203 14.5 30.6 0.00 0.00 0.00 47 1014.1
20260506001017 13 203 17.7 41.8 0.00 0.00 0.00 48 1014.2
20260506000017 14 203 16.1 35.4 0.00 0.00 0.00 46 1013.7
20260505235017 14 225 12.9 29.0 0.00 0.00 0.00 47 1014.1
20260505234017 14 225 14.5 29.0 0.00 0.00 0.00 46 1014.1
20260505233017 15 203 14.5 35.4 0.00 0.00 0.00 46 1014.5
20260505232017 15 203 17.7 43.5 0.00 0.00 0.00 45 1014.3
20260505231017 15 225 17.7 37.0 0.00 0.00 0.00 45 1014.3
20260505230021 15 225 17.7 38.6 0.00 0.00 0.00 45 1014.3
20260505225016 15 203 22.5 40.2 0.00 0.00 0.00 45 1014.5
20260505224016 16 225 19.3 40.2 0.00 0.00 0.00 43 1015.0
20260505223037 16 203 16.1 33.8 0.00 0.00 0.00 44 1015.2
20260505222017 16 225 20.9 38.6 0.00 0.00 0.00 44 1014.9
20260505221016 15 203 22.5 37.0 0.00 0.00 0.00 45 1014.7
20260505220037 15 203 20.9 40.2 0.00 0.00 0.00 46 1014.8
20260505215016 15 225 20.9 46.7 0.00 0.00 0.00 46 1015.1
20260505214016 15 203 19.3 40.2 0.00 0.00 0.00 47 1015.1
20260505213016 15 203 19.3 41.8 0.00 0.00 0.00 45 1015.1
20260505212016 14 225 19.3 37.0 0.00 0.00 0.00 46 1014.9
20260505211016 13 225 17.7 33.8 0.00 0.00 0.00 47 1015.2
20260505210016 13 225 16.1 33.8 0.00 0.00 0.00 46 1015.2
20260505205016 12 225 14.5 32.2 0.00 0.00 0.00 45 1014.8
20260505204016 11 225 17.7 40.2 0.00 0.00 0.00 40 1014.2
20260505203016 10 203 22.5 46.7 0.00 0.00 0.00 46 1013.9
20260505202037 13 225 17.7 45.1 0.00 0.00 0.00 53 1015.9
20260505201016 15 225 12.9 29.0 0.00 0.00 0.00 52 1016.5
20260505200016 13 225 19.3 41.8 0.00 0.00 0.00 52 1015.7
20260505195037 13 203 14.5 33.8 0.00 0.00 0.00 54 1016.1
20260505194016 13 225 14.5 38.6 0.00 0.00 0.00 55 1016.2
20260505193016 14 225 19.3 40.2 0.00 0.00 0.00 54 1016.5
20260505192016 15 225 19.3 49.9 0.00 0.00 0.00 47 1016.7
20260505191016 15 225 20.9 43.5 0.00 0.00 0.00 46 1016.1
20260505190016 15 203 20.9 40.2 0.00 0.00 0.00 45 1016.1
20260505185016 16 203 20.9 41.8 0.00 0.00 0.00 45 1015.8
20260505184016 16 225 17.7 45.1 0.00 0.00 0.00 44 1016.3
20260505183036 16 203 22.5 41.8 0.00 0.00 0.00 44 1016.1
20260505182016 16 203 22.5 49.9 0.00 0.00 0.00 43 1016.2
20260505181016 16 225 22.5 46.7 0.00 0.00 0.00 43 1016.8
20260505180016 16 225 20.9 40.2 0.00 0.00 0.00 43 1016.7
20260505175016 16 203 22.5 41.8 0.00 0.00 0.00 43 1016.7
20260505174017 16 225 20.9 38.6 0.00 0.00 0.00 43 1016.6
20260505173036 16 225 19.3 38.6 0.00 0.00 0.00 41 1016.5
20260505172016 16 248 12.9 33.8 0.00 0.00 0.00 38 1016.4
20260505171016 15 225 16.1 33.8 0.00 0.00 0.00 37 1017.1
20260505170056 16 248 17.7 41.8 0.00 0.00 0.00 32 1016.8
20260505165016 17 225 9.7 24.1 0.00 0.00 0.00 30 1016.9
20260505164036 16 248 17.7 35.4 0.00 0.00 0.00 31 1017.1
20260505163015 15 225 17.7 43.5 0.00 0.00 0.00 33 1016.4
20260505162016 15 270 17.7 37.0 0.00 0.00 0.00 33 1016.7
20260505161015 15 248 20.9 40.2 0.00 0.00 0.00 35 1016.7
20260505153018 14 225 19.3 38.6 0.00 0.00 0.00 38 1016.1
20260505152037 14 225 16.1 35.4 0.00 0.00 0.00 42 1016.1
20260505151017 14 248 12.9 25.7 0.00 0.00 0.00 46 1016.2
20260505125017 12 270 12.9 29.0 0.00 0.00 0.00 48 1014.8
20260505124037 12 248 14.5 32.2 0.00 0.00 0.00 48 1014.5
20260505123017 12 248 12.9 38.6 0.00 0.00 0.00 47 1014.3
20260505122017 12 225 11.3 29.0 0.00 0.00 0.00 47 1014.5
20260505121017 12 248 20.9 46.7 0.00 0.00 0.00 46 1015.0
20260505120017 12 225 16.1 35.4 0.00 0.00 0.00 46 1015.1
20260505115017 12 248 12.9 30.6 0.00 0.00 0.00 46 1015.2